Location: Banios
(43.0451°N, 0.2335°E)
Time: 00:31:10
(UTC+00:00)

N. Korean satellite - Pass Details

Date: 08 December 2021
Orbit: 447 x 491 km, 97.3° (Epoch: 21 January)

Event Time Altitude Azimuth Distance (km) Brightness Sun altitude
Rises 04:30:28 0° 27° (NNE) 2,458 10.4 -29.7°
Reaches altitude 10° 04:32:52 10° 44° (NE) 1,580 9.6 -29.3°
Maximum altitude 04:35:29 21° 95° (E) 1,073 9.0 -28.8°
Drops below altitude 10° 04:38:05 10° 146° (SE) 1,572 9.6 -28.3°
Sets 04:40:28 0° 163° (SSE) 2,442 10.4 -27.9°
